Gustavus, AK

1:15 AM AKDT on June 24, 2017 (GMT -0800)
Gustavus

Weather History for PAGS - October, 2013

Change the Weather History Date:

Monday, October 7, 2013

  Actual Average Record
Temperature  
Mean Temperature 42 °F -  
Max Temperature 53 °F 52 °F 60 °F (1984)
Min Temperature 32 °F 38 °F 20 °F (1954)
Degree Days  
Heating Degree Days 22    
Moisture  
Dew Point 37 °F    
Average Humidity 88    
Maximum Humidity 100    
Minimum Humidity 58    
Precipitation  
Precipitation 0.00 in - - ()
Sea Level Pressure  
Sea Level Pressure 29.74 in    
Wind  
Wind Speed 1 mph (WNW)    
Max Wind Speed 7 mph    
Max Gust Speed -    
Visibility 10 miles    
Events      
Averages and records for this station are not official NWS values.
T = Trace of Precipitation, MM = Missing Value Source: NWS Daily Summary

Daily Weather History Graph

Daily Weather History Graph

Search for Another Location

Airport or City:

Trip Planner

Search our weather history database for the weather conditions in past years. The results will help you decide how hot, cold, wet, or windy it might be!

Date:

Astronomy

Oct. 07, 2013 Rise Set
Actual Time 7:21 AM AKDT 6:18 PM AKDT
Civil Twilight 6:41 AM AKDT 6:57 PM AKDT
Nautical Twilight 5:55 AM AKDT 7:43 PM AKDT
Astronomical Twilight 5:08 AM AKDT 8:30 PM AKDT
Moon 11:05 AM AKDT (10/7) 7:21 PM AKDT (10/7)
Length of Visible Light 12h 15m
Length of Day
10h 56m
Waxing Crescent, 9% of the Moon is Illuminated
Oct 7
Waxing Crescent
Oct 11
First Quarter
Oct 18
Full
Oct 26
Last Quarter
Nov 3
New

Hourly Weather History & Observations

Time (AKDT) Temp. Windchill Dew Point Humidity Pressure Visibility Wind Dir Wind Speed Gust Speed Precip Events Conditions
12:16 AM 33.8 °F - 32.0 °F 93% 29.57 in 10.0 mi Calm Calm - N/A   Clear
12:36 AM 33.8 °F - 33.8 °F 100% 29.57 in 10.0 mi Calm Calm - N/A   Clear
12:56 AM 33.8 °F - 30.2 °F 87% 29.57 in 10.0 mi Calm Calm - N/A   Clear
1:16 AM 35.6 °F - 35.6 °F 100% 29.56 in 10.0 mi Calm Calm - N/A   Clear
1:36 AM 33.8 °F - 33.8 °F 100% 29.56 in 10.0 mi Calm Calm - N/A   Mostly Cloudy
1:56 AM 35.6 °F - 35.6 °F 100% 29.56 in 10.0 mi Calm Calm - N/A   Overcast
2:16 AM 39.2 °F - 39.2 °F 100% 29.56 in 10.0 mi Calm Calm - N/A   Overcast
2:36 AM 37.4 °F 34.9 °F 35.6 °F 93% 29.56 in 10.0 mi North 3.5 mph - N/A   Overcast
2:56 AM 37.4 °F 33.8 °F 35.6 °F 93% 29.56 in 10.0 mi NNW 4.6 mph - N/A   Overcast
3:16 AM 37.4 °F - 37.4 °F 100% 29.57 in 10.0 mi Calm Calm - N/A   Overcast
3:36 AM 37.4 °F 34.9 °F 35.6 °F 93% 29.57 in 10.0 mi North 3.5 mph - N/A   Mostly Cloudy
3:56 AM 35.6 °F 32.8 °F 35.6 °F 100% 29.58 in 10.0 mi NNW 3.5 mph - N/A   Partly Cloudy
4:16 AM 35.6 °F - 35.6 °F 100% 29.58 in 10.0 mi Calm Calm - N/A   Clear
4:36 AM 33.8 °F - 33.8 °F 100% 29.58 in 10.0 mi Calm Calm - N/A   Clear
4:56 AM 35.6 °F 32.8 °F 33.8 °F 93% 29.59 in 10.0 mi NNW 3.5 mph - N/A   Clear
5:16 AM 33.8 °F 29.6 °F 32.0 °F 93% 29.59 in 10.0 mi North 4.6 mph - N/A   Partly Cloudy
5:36 AM 33.8 °F - 32.0 °F 93% 29.59 in 10.0 mi Calm Calm - N/A   Scattered Clouds
5:56 AM 33.8 °F - 32.0 °F 93% 29.60 in 10.0 mi Calm Calm - N/A   Mostly Cloudy
6:16 AM 33.8 °F - 30.2 °F 87% 29.60 in 6.0 mi Calm Calm - N/A   Scattered Clouds
6:36 AM 33.8 °F - 30.2 °F 87% 29.61 in 10.0 mi Calm Calm - N/A   Clear
6:56 AM 33.8 °F - 30.2 °F 87% 29.61 in 10.0 mi Calm Calm - N/A   Clear
7:16 AM 32.0 °F 27.5 °F 30.2 °F 93% 29.61 in 10.0 mi North 4.6 mph - N/A   Mostly Cloudy
7:36 AM 33.8 °F - 32.0 °F 93% 29.62 in 10.0 mi Calm Calm - N/A   Scattered Clouds
7:56 AM 33.8 °F - 32.0 °F 93% 29.63 in 10.0 mi Calm Calm - N/A   Partly Cloudy
8:16 AM 33.8 °F 29.6 °F 32.0 °F 93% 29.64 in 10.0 mi NNW 4.6 mph - N/A   Partly Cloudy
8:36 AM 33.8 °F - 33.8 °F 100% 29.64 in 10.0 mi Calm Calm - N/A   Clear
8:56 AM 35.6 °F - 33.8 °F 93% 29.65 in 10.0 mi Calm Calm - N/A   Clear
9:16 AM 35.6 °F - 33.8 °F 93% 29.66 in 10.0 mi Calm Calm - N/A   Clear
9:36 AM 35.6 °F - 33.8 °F 93% 29.67 in 10.0 mi Calm Calm - N/A   Partly Cloudy
9:56 AM 37.4 °F - 37.4 °F 100% 29.68 in 10.0 mi Calm Calm - N/A   Mostly Cloudy
10:16 AM 39.2 °F - 39.2 °F 100% 29.69 in 10.0 mi Calm Calm - N/A   Overcast
10:36 AM 42.8 °F - 41.0 °F 93% 29.69 in 10.0 mi Calm Calm - N/A   Overcast
10:56 AM 44.6 °F - 42.8 °F 93% 29.70 in 10.0 mi Calm Calm - N/A   Mostly Cloudy
11:16 AM 46.4 °F - 42.8 °F 87% 29.71 in 10.0 mi Calm Calm - N/A   Partly Cloudy
11:36 AM 48.2 °F - 42.8 °F 82% 29.71 in 10.0 mi Calm Calm - N/A   Clear
11:56 AM 50.0 °F - 42.8 °F 76% 29.72 in 10.0 mi SW 3.5 mph - N/A   Partly Cloudy
12:36 PM 51.8 °F - 42.8 °F 71% 29.73 in 10.0 mi Calm Calm - N/A   Scattered Clouds
1:16 PM 51.8 °F - 41.0 °F 67% 29.75 in 10.0 mi WNW 4.6 mph - N/A   Clear
1:36 PM 51.8 °F - 41.0 °F 67% 29.75 in 10.0 mi West 3.5 mph - N/A   Scattered Clouds
1:56 PM 51.8 °F - 42.8 °F 71% 29.76 in 10.0 mi SSW 4.6 mph - N/A   Mostly Cloudy
2:16 PM 51.8 °F - 41.0 °F 67% 29.77 in 10.0 mi SW 3.5 mph - N/A   Mostly Cloudy
2:36 PM 51.8 °F - 42.8 °F 71% 29.78 in 10.0 mi SW 4.6 mph - N/A   Mostly Cloudy
2:56 PM 50.0 °F - 42.8 °F 76% 29.78 in 10.0 mi SW 4.6 mph - N/A   Partly Cloudy
3:36 PM 48.2 °F - 42.8 °F 82% 29.80 in 10.0 mi SSW 5.8 mph - N/A   Mostly Cloudy
3:56 PM 51.8 °F - 42.8 °F 71% 29.81 in 10.0 mi SW 6.9 mph - N/A   Scattered Clouds
4:16 PM 53.6 °F - 41.0 °F 62% 29.81 in 10.0 mi West 5.8 mph - N/A   Partly Cloudy
4:36 PM 53.6 °F - 39.2 °F 58% 29.82 in 10.0 mi West 4.6 mph - N/A   Partly Cloudy
4:56 PM 51.8 °F - 41.0 °F 67% 29.83 in 10.0 mi WNW 4.6 mph - N/A   Clear
5:16 PM 51.8 °F - 41.0 °F 67% 29.84 in 10.0 mi WNW 3.5 mph - N/A   Clear
5:36 PM 51.8 °F - 42.8 °F 71% 29.85 in 10.0 mi Calm Calm - N/A   Clear
5:56 PM 48.2 °F - 42.8 °F 82% 29.86 in 10.0 mi Calm Calm - N/A   Partly Cloudy
6:36 PM 46.4 °F - 42.8 °F 87% 29.89 in 10.0 mi Calm Calm - N/A   Mostly Cloudy
6:56 PM 44.6 °F - 42.8 °F 93% 29.89 in 10.0 mi Calm Calm - N/A   Clear
7:16 PM 44.6 °F - 41.0 °F 87% 29.90 in 10.0 mi Calm Calm - N/A   Clear
7:36 PM 42.8 °F - 39.2 °F 87% 29.91 in 10.0 mi Calm Calm - N/A   Clear
7:56 PM 41.0 °F - 39.2 °F 93% 29.92 in 10.0 mi Calm Calm - N/A   Clear
8:16 PM 39.2 °F - 37.4 °F 93% 29.93 in 10.0 mi Calm Calm - N/A   Clear
8:36 PM 39.2 °F - 35.6 °F 87% 29.93 in 10.0 mi Calm Calm - N/A   Clear
8:56 PM 39.2 °F - 35.6 °F 87% 29.94 in 10.0 mi Calm Calm - N/A   Clear
9:16 PM 37.4 °F - 35.6 °F 93% 29.95 in 10.0 mi Calm Calm - N/A   Clear
9:36 PM 37.4 °F - 33.8 °F 87% 29.95 in 10.0 mi Calm Calm - N/A   Clear
9:56 PM 35.6 °F - 33.8 °F 93% 29.97 in 10.0 mi Calm Calm - N/A   Clear
10:16 PM 35.6 °F - 33.8 °F 93% 29.98 in 10.0 mi Calm Calm - N/A   Clear
10:36 PM 35.6 °F - 33.8 °F 93% 29.98 in 10.0 mi Calm Calm - N/A   Clear
10:56 PM 33.8 °F - 32.0 °F 93% 29.99 in 10.0 mi Calm Calm - N/A   Clear
11:16 PM 33.8 °F - 32.0 °F 93% 30.00 in 10.0 mi Calm Calm - N/A   Clear
11:36 PM 33.8 °F - 32.0 °F 93% 30.00 in 10.0 mi Calm Calm - N/A   Clear
11:56 PM 33.8 °F - 30.2 °F 87% 30.01 in 10.0 mi Calm Calm - N/A   Clear